This demonstration page uses our WeatherBlox Daily Observations layout. Learn more.

Hourly Observations for February 27, 2020

Temp ( °F °C ) Dew Point ( °F °C ) Humidity (%) Winds ( mph kmh ) Pressure ( in mb ) Visibility ( mi km ) Precip ( " mm )
12:15 am 00:15 Cloudy 39 4 37 3 93 93 NW 26 43 29.61 1003 5 8.0467 0 0
12:35 am 00:35 Cloudy 37 3 37 3 100 100 NNW 15 24 29.62 1003 7 11.26538 0 0
12:55 am 00:55 Cloudy 37 3 37 3 100 100 NNW 15 24 29.61 1003 10 16.0934 0 0
1:15 am 01:15 Cloudy 37 3 36 2 93 93 WNW 20 31 29.63 1003 10 16.0934 0 0
1:35 am 01:35 Cloudy 37 3 36 2 93 93 NW 13 20 29.62 1003 10 16.0934 0 0
1:55 am 01:55 Cloudy 37 3 34 1 87 87 NW 17 28 29.62 1003 10 16.0934 0 0
2:15 am 02:15 Cloudy 37 3 32 0 81 81 NW 25 41 29.63 1003 10 16.0934 0 0
2:35 am 02:35 Mostly Cloudy 37 3 32 0 81 81 WNW 15 24 29.63 1003 10 16.0934 0 0
2:55 am 02:55 Cloudy 37 3 32 0 81 81 WNW 14 22 29.63 1003 10 16.0934 0 0
3:15 am 03:15 Cloudy 37 3 30 -1 75 75 WNW 23 37 29.63 1003 10 16.0934 0 0
3:55 am 03:55 Cloudy 37 3 28 -2 70 70 WNW 21 33 29.64 1004 10 16.0934 0 0
4:15 am 04:15 Cloudy 37 3 28 -2 70 70 WNW 18 30 29.65 1004 10 16.0934 0 0
4:35 am 04:35 Mostly Cloudy 36 2 28 -2 75 75 NW 20 31 29.66 1004 10 16.0934 0 0
4:55 am 04:55 Mostly Cloudy 36 2 27 -3 70 70 WNW 28 44 29.67 1005 10 16.0934 0 0
5:15 am 05:15 Partly Cloudy 36 2 28 -2 75 75 NW 21 33 29.68 1005 10 16.0934 0 0
5:35 am 05:35 Partly Cloudy 34 1 28 -2 81 81 NW 21 33 29.69 1005 10 16.0934 0 0
5:55 am 05:55 Mostly Cloudy 34 1 28 -2 81 81 NW 13 20 29.7 1006 10 16.0934 0 0
6:15 am 06:15 Cloudy 34 1 28 -2 81 81 WNW 21 33 29.71 1006 10 16.0934 0 0
6:35 am 06:35 Cloudy 34 1 27 -3 75 75 WNW 28 44 29.73 1007 10 16.0934 0 0
6:55 am 06:55 Cloudy 34 1 27 -3 75 75 WNW 18 30 29.74 1007 10 16.0934 0 0
7:15 am 07:15 Cloudy 34 1 27 -3 75 75 WNW 18 30 29.75 1007 10 16.0934 0 0
7:35 am 07:35 Cloudy 34 1 23 -5 65 65 WNW 20 31 29.77 1008 10 16.0934 0 0
7:55 am 07:55 Mostly Cloudy 34 1 23 -5 65 65 WNW 18 30 29.78 1008 10 16.0934 0 0
8:35 am 08:35 Sunny 34 1 21 -6 60 60 WNW 15 24 29.81 1009 10 16.0934 0.01 0.254
8:55 am 08:55 Partly Cloudy 34 1 21 -6 60 60 NW 25 41 29.81 1009 10 16.0934 0.01 0.254
9:15 am 09:15 Partly Cloudy 34 1 21 -6 60 60 WNW 22 35 29.82 1010 10 16.0934 0 0
9:35 am 09:35 Mostly Cloudy 34 1 21 -6 60 60 NW 26 43 29.82 1010 10 16.0934 0 0
9:55 am 09:55 Mostly Cloudy 36 2 21 -6 56 56 NW 23 37 29.83 1010 10 16.0934 0 0
10:15 am 10:15 Mostly Cloudy 36 2 23 -5 60 60 WNW 25 41 29.84 1010 10 16.0934 0 0
10:35 am 10:35 Cloudy 36 2 23 -5 60 60 WNW 18 30 29.84 1010 10 16.0934 0 0
10:55 am 10:55 Mostly Cloudy 36 2 23 -5 60 60 WNW 21 33 29.84 1010 10 16.0934 0 0
11:15 am 11:15 Mostly Cloudy 37 3 21 -6 52 52 WNW 28 44 29.84 1010 10 16.0934 0 0
11:35 am 11:35 Partly Cloudy 37 3 21 -6 52 52 WNW 21 33 29.85 1011 10 16.0934 0 0
11:55 am 11:55 Sunny 37 3 21 -6 52 52 NW 22 35 29.85 1011 10 16.0934 0 0
12:15 pm 12:15 Sunny 39 4 21 -6 48 48 NW 21 33 29.85 1011 10 16.0934 0 0
12:35 pm 12:35 Partly Cloudy 39 4 21 -6 48 48 WNW 25 41 29.86 1011 10 16.0934 0 0
12:55 pm 12:55 Partly Cloudy 37 3 19 -7 48 48 WNW 22 35 29.86 1011 10 16.0934 0 0
1:15 pm 13:15 Sunny 37 3 19 -7 48 48 WNW 28 44 29.86 1011 10 16.0934 0 0
1:35 pm 13:35 Partly Cloudy 37 3 19 -7 48 48 WNW 24 39 29.87 1011 10 16.0934 0 0
1:55 pm 13:55 Partly Cloudy 37 3 19 -7 48 48 NW 25 41 29.87 1011 10 16.0934 0 0
2:15 pm 14:15 Partly Cloudy 37 3 19 -7 48 48 NW 21 33 29.88 1012 10 16.0934 0 0
2:35 pm 14:35 Partly Cloudy 37 3 19 -7 48 48 WNW 18 30 29.88 1012 10 16.0934 0 0
2:55 pm 14:55 Partly Cloudy 37 3 19 -7 48 48 NW 20 31 29.88 1012 10 16.0934 0 0
3:15 pm 15:15 Partly Cloudy 37 3 19 -7 48 48 WNW 20 31 29.89 1012 10 16.0934 0 0
3:35 pm 15:35 Mostly Cloudy 37 3 21 -6 52 52 NW 17 28 29.9 1012 10 16.0934 0 0
3:55 pm 15:55 Mostly Cloudy 37 3 19 -7 48 48 WNW 21 33 29.9 1012 10 16.0934 0 0
4:15 pm 16:15 Mostly Cloudy 37 3 19 -7 48 48 W 25 41 29.91 1013 10 16.0934 0 0
4:35 pm 16:35 Partly Cloudy 36 2 19 -7 52 52 WNW 20 31 29.92 1013 10 16.0934 0 0
4:55 pm 16:55 Mostly Cloudy 36 2 19 -7 52 52 NW 17 28 29.92 1013 10 16.0934 0 0
5:15 pm 17:15 Cloudy 36 2 19 -7 52 52 WNW 14 22 29.93 1013 10 16.0934 0 0
5:35 pm 17:35 Mostly Cloudy 34 1 18 -8 51 51 WNW 22 35 29.95 1014 10 16.0934 0 0
5:55 pm 17:55 Cloudy 34 1 18 -8 51 51 NW 16 26 29.97 1015 10 16.0934 0 0
6:15 pm 18:15 Cloudy 34 1 18 -8 51 51 WNW 13 20 29.97 1015 10 16.0934 0 0
6:55 pm 18:55 Mostly Cloudy 32 0 18 -8 55 55 WNW 15 24 30 1016 10 16.0934 0 0
7:15 pm 19:15 Cloudy 32 0 16 -9 51 51 WNW 13 20 30.01 1016 10 16.0934 0 0
7:35 pm 19:35 Cloudy 32 0 16 -9 51 51 W 18 30 30.02 1017 10 16.0934 0 0
7:55 pm 19:55 Cloudy 32 0 14 -10 47 47 WNW 15 24 30.02 1017 10 16.0934 0 0
8:15 pm 20:15 Cloudy 32 0 14 -10 47 47 W 12 19 30.02 1017 10 16.0934 0 0
8:35 pm 20:35 Cloudy 32 0 14 -10 47 47 W 13 20 30.02 1017 10 16.0934 0 0
8:55 pm 20:55 Cloudy 32 0 14 -10 47 47 W 9 15 30.02 1017 10 16.0934 0 0
9:15 pm 21:15 Mostly Cloudy 32 0 16 -9 51 51 W 10 17 30.02 1017 10 16.0934 0 0
9:35 pm 21:35 Partly Cloudy 32 0 16 -9 51 51 W 8 13 30.01 1016 10 16.0934 0 0
9:55 pm 21:55 Clear 32 0 16 -9 51 51 W 8 13 30.01 1016 10 16.0934 0 0
10:15 pm 22:15 Partly Cloudy 30 -1 16 -9 55 55 SW 7 11 30.01 1016 10 16.0934 0 0
10:35 pm 22:35 Mostly Cloudy 30 -1 18 -8 59 59 SW 6 9 30.01 1016 10 16.0934 0 0
10:55 pm 22:55 Cloudy 30 -1 16 -9 55 55 W 6 9 30 1016 10 16.0934 0 0
11:15 pm 23:15 Cloudy 32 0 18 -8 55 55 W 10 17 30 1016 10 16.0934 0 0
11:35 pm 23:35 Cloudy 32 0 18 -8 55 55 W 12 19 30.01 1016 10 16.0934 0 0
11:55 pm 23:55 Cloudy 32 0 16 -9 51 51 WNW 15 24 30 1016 10 16.0934 0 0

Powered by AerisWeather